Location: Newark
(49.8348°N, 24.0280°E)
Time: 07:24:19
(UTC+00:00)

Explorer 7 - Pass Details

Date: 21 January 2020
Orbit: 485 x 679 km, 50.3° (Epoch: 21 February)

Event Time Altitude Azimuth Distance (km) Brightness Sun altitude
Rises 04:55:38 0° 282° (WNW) 2,633 - -12.0°
Reaches altitude 10° 04:58:14 10° 265° (W) 1,774 - -11.6°
Exits shadow 04:58:55 13° 257° (WSW) 1,596 8.7 -11.4°
Maximum altitude 05:01:10 19° 218° (SW) 1,313 8.5 -11.1°
Drops below altitude 10° 05:04:11 10° 172° (S) 1,849 9.9 -10.6°
Sets 05:06:59 0° 155° (SSE) 2,786 11.1 -10.2°
